Time,TemperatureF,DewpointF,PressureIn,WindDirection,WindDirectionDegrees,WindSpeedMPH,WindSpeedGustMPH,Humidity,HourlyPrecipIn,Conditions,Clouds,dailyrainin,SoftwareType,DateUTC
2013-09-24 00:14:00,56.0,45.0,-100.00,NW,324,5.0,-999.0,66,-99.99,,,-99.99,,2013-09-24 04:14:00,
2013-09-24 00:24:00,55.0,46.0,-100.00,NW,325,6.0,-999.0,68,-99.99,,,-99.99,,2013-09-24 04:24:00,
2013-09-24 00:44:00,55.0,46.0,-100.00,NW,325,6.0,-999.0,69,-99.99,,,-99.99,,2013-09-24 04:44:00,
2013-09-24 00:54:00,55.0,45.0,-100.00,NW,324,5.0,-999.0,69,-99.99,,,-99.99,,2013-09-24 04:54:00,
2013-09-24 01:13:00,55.0,45.0,-100.00,NW,310,4.0,-999.0,69,-99.99,,,-99.99,,2013-09-24 05:13:00,
2013-09-24 01:23:00,55.0,46.0,-100.00,WNW,294,2.0,-999.0,71,-99.99,,,-99.99,,2013-09-24 05:23:00,
2013-09-24 01:34:00,55.0,46.0,-100.00,WNW,294,2.0,-999.0,71,-99.99,,,-99.99,,2013-09-24 05:34:00,
2013-09-24 01:43:00,55.0,46.0,-100.00,WNW,294,2.0,-999.0,71,-99.99,,,-99.99,,2013-09-24 05:43:00,
2013-09-24 01:53:00,54.0,45.0,-100.00,NW,313,2.0,-999.0,71,-99.99,,,-99.99,,2013-09-24 05:53:00,
2013-09-24 02:02:00,54.0,45.0,-100.00,NW,313,2.0,-999.0,71,-99.99,,,-99.99,,2013-09-24 06:02:00,
2013-09-24 02:13:00,54.0,45.0,-100.00,NW,313,2.0,-999.0,71,-99.99,,,-99.99,,2013-09-24 06:13:00,
2013-09-24 02:22:00,54.0,45.0,-100.00,NW,313,3.0,-999.0,71,-99.99,,,-99.99,,2013-09-24 06:22:00,
2013-09-24 02:32:00,54.0,45.0,-100.00,NW,313,3.0,-999.0,71,-99.99,,,-99.99,,2013-09-24 06:32:00,
2013-09-24 02:42:00,54.0,45.0,-100.00,NW,313,3.0,-999.0,71,-99.99,,,-99.99,,2013-09-24 06:42:00,
2013-09-24 02:52:00,53.0,45.0,-100.00,NW,319,4.0,-999.0,73,-99.99,,,-99.99,,2013-09-24 06:52:00,
2013-09-24 03:03:00,53.0,45.0,-100.00,NW,319,4.0,-999.0,73,-99.99,,,-99.99,,2013-09-24 07:03:00,
2013-09-24 03:12:00,53.0,45.0,-100.00,NW,319,4.0,-999.0,73,-99.99,,,-99.99,,2013-09-24 07:12:00,
2013-09-24 03:22:00,53.0,45.0,-100.00,NW,320,5.0,-999.0,74,-99.99,,,-99.99,,2013-09-24 07:22:00,
2013-09-24 03:32:00,53.0,45.0,-100.00,NW,320,5.0,-999.0,74,-99.99,,,-99.99,,2013-09-24 07:32:00,
2013-09-24 03:43:00,53.0,45.0,-100.00,NW,320,5.0,-999.0,74,-99.99,,,-99.99,,2013-09-24 07:43:00,
2013-09-24 03:52:00,52.0,45.0,-100.00,NNW,331,4.0,-999.0,75,-99.99,,,-99.99,,2013-09-24 07:52:00,
2013-09-24 04:02:00,52.0,45.0,-100.00,NNW,331,4.0,-999.0,75,-99.99,,,-99.99,,2013-09-24 08:02:00,
2013-09-24 04:11:00,52.0,45.0,-100.00,NNW,331,4.0,-999.0,75,-99.99,,,-99.99,,2013-09-24 08:11:00,
2013-09-24 04:23:00,52.0,45.0,-100.00,NW,325,4.0,-999.0,76,-99.99,,,-99.99,,2013-09-24 08:23:00,
2013-09-24 04:32:00,52.0,45.0,-100.00,NW,325,4.0,-999.0,76,-99.99,,,-99.99,,2013-09-24 08:32:00,
2013-09-24 04:42:00,52.0,45.0,-100.00,NW,325,4.0,-999.0,76,-99.99,,,-99.99,,2013-09-24 08:42:00,
2013-09-24 04:52:00,51.0,45.0,-100.00,NNW,338,5.0,-999.0,77,-99.99,,,-99.99,,2013-09-24 08:52:00,
2013-09-24 05:02:00,51.0,45.0,-100.00,NNW,338,5.0,-999.0,77,-99.99,,,-99.99,,2013-09-24 09:02:00,
2013-09-24 05:12:00,51.0,45.0,-100.00,NNW,338,5.0,-999.0,77,-99.99,,,-99.99,,2013-09-24 09:12:00,
2013-09-24 05:22:00,51.0,44.0,-100.00,NNW,339,6.0,-999.0,77,-99.99,,,-99.99,,2013-09-24 09:22:00,
2013-09-24 05:33:00,51.0,44.0,-100.00,NNW,339,6.0,-999.0,77,-99.99,,,-99.99,,2013-09-24 09:33:00,
2013-09-24 05:43:00,51.0,44.0,-100.00,NNW,339,6.0,-999.0,77,-99.99,,,-99.99,,2013-09-24 09:43:00,
2013-09-24 05:54:00,50.0,44.0,-100.00,NNW,341,6.0,-999.0,78,-99.99,,,-99.99,,2013-09-24 09:54:00,
2013-09-24 06:03:00,50.0,44.0,-100.00,NNW,341,6.0,-999.0,78,-99.99,,,-99.99,,2013-09-24 10:03:00,
2013-09-24 06:13:00,50.0,44.0,-100.00,NNW,341,6.0,-999.0,78,-99.99,,,-99.99,,2013-09-24 10:13:00,
2013-09-24 06:23:00,50.0,43.0,-100.00,NNW,345,5.0,-999.0,77,-99.99,,,-99.99,,2013-09-24 10:23:00,
2013-09-24 06:33:00,50.0,43.0,-100.00,NNW,345,5.0,-999.0,77,-99.99,,,-99.99,,2013-09-24 10:33:00,
2013-09-24 06:42:00,50.0,43.0,-100.00,NNW,345,5.0,-999.0,77,-99.99,,,-99.99,,2013-09-24 10:42:00,
2013-09-24 06:53:00,50.0,43.0,-100.00,NNW,342,4.0,-999.0,75,-99.99,,,-99.99,,2013-09-24 10:53:00,
2013-09-24 07:03:00,50.0,43.0,-100.00,NNW,342,4.0,-999.0,75,-99.99,,,-99.99,,2013-09-24 11:03:00,
2013-09-24 07:11:00,50.0,43.0,-100.00,NNW,342,4.0,-999.0,75,-99.99,,,-99.99,,2013-09-24 11:11:00,
2013-09-24 07:22:00,50.0,43.0,-100.00,NNW,340,5.0,-999.0,77,-99.99,,,-99.99,,2013-09-24 11:22:00,
2013-09-24 07:42:00,50.0,43.0,-100.00,NNW,332,4.0,-999.0,77,-99.99,,,-99.99,,2013-09-24 11:42:00,
2013-09-24 07:52:00,50.0,43.0,-100.00,NNW,338,4.0,-999.0,76,-99.99,,,-99.99,,2013-09-24 11:52:00,
2013-09-24 08:12:00,50.0,43.0,-100.00,NNW,346,5.0,-999.0,76,-99.99,,,-99.99,,2013-09-24 12:12:00,
2013-09-24 08:22:00,51.0,43.0,-100.00,NNW,347,5.0,-999.0,74,-99.99,,,-99.99,,2013-09-24 12:22:00,
2013-09-24 08:42:00,51.0,43.0,-100.00,NNW,341,5.0,-999.0,74,-99.99,,,-99.99,,2013-09-24 12:42:00,
2013-09-24 08:52:00,52.0,43.0,-100.00,North,350,6.0,-999.0,72,-99.99,,,-99.99,,2013-09-24 12:52:00,
2013-09-24 09:11:00,53.0,43.0,-100.00,North,350,6.0,-999.0,69,-99.99,,,-99.99,,2013-09-24 13:11:00,
2013-09-24 09:22:00,54.0,43.0,-100.00,North,5,5.0,-999.0,64,-99.99,,,-99.99,,2013-09-24 13:22:00,
2013-09-24 09:42:00,55.0,42.0,-100.00,North,351,6.0,-999.0,61,-99.99,,,-99.99,,2013-09-24 13:42:00,
2013-09-24 09:52:00,56.0,42.0,-100.00,North,1,7.0,-999.0,59,-99.99,,,-99.99,,2013-09-24 13:52:00,
2013-09-24 10:12:00,56.0,42.0,-100.00,North,354,7.0,-999.0,58,-99.99,,,-99.99,,2013-09-24 14:12:00,
2013-09-24 10:21:00,56.0,42.0,-100.00,North,357,8.0,-999.0,58,-99.99,,,-99.99,,2013-09-24 14:21:00,
2013-09-24 10:42:00,58.0,42.0,-100.00,NNW,340,5.0,-999.0,56,-99.99,,,-99.99,,2013-09-24 14:42:00,
2013-09-24 10:52:00,58.0,42.0,-100.00,North,349,6.0,-999.0,55,-99.99,,,-99.99,,2013-09-24 14:52:00,
2013-09-24 11:11:00,58.0,43.0,-100.00,North,9,6.0,-999.0,55,-99.99,,,-99.99,,2013-09-24 15:11:00,
2013-09-24 11:22:00,59.0,42.0,-100.00,North,349,6.0,-999.0,52,-99.99,,,-99.99,,2013-09-24 15:22:00,
2013-09-24 11:43:00,60.0,42.0,-100.00,NNW,340,5.0,-999.0,51,-99.99,,,-99.99,,2013-09-24 15:43:00,
2013-09-24 11:54:00,61.0,42.0,-100.00,NNW,347,6.0,-999.0,50,-99.99,,,-99.99,,2013-09-24 15:54:00,
2013-09-24 12:13:00,61.0,43.0,-100.00,NNW,347,6.0,-999.0,50,-99.99,,,-99.99,,2013-09-24 16:13:00,
2013-09-24 12:23:00,62.0,42.0,-100.00,NW,320,7.0,-999.0,48,-99.99,,,-99.99,,2013-09-24 16:23:00,
2013-09-24 12:43:00,62.0,42.0,-100.00,NW,316,8.0,-999.0,47,-99.99,,,-99.99,,2013-09-24 16:43:00,
2013-09-24 12:53:00,63.0,42.0,-100.00,WNW,298,8.0,-999.0,46,-99.99,,,-99.99,,2013-09-24 16:53:00,
2013-09-24 13:13:00,64.0,42.0,-100.00,WNW,298,10.0,-999.0,45,-99.99,,,-99.99,,2013-09-24 17:13:00,
2013-09-24 13:23:00,64.0,43.0,-100.00,NW,321,6.0,-999.0,45,-99.99,,,-99.99,,2013-09-24 17:23:00,
2013-09-24 13:43:00,64.0,42.0,-100.00,NW,321,8.0,-999.0,44,-99.99,,,-99.99,,2013-09-24 17:43:00,
2013-09-24 13:54:00,65.0,43.0,-100.00,WNW,302,4.0,-999.0,43,-99.99,,,-99.99,,2013-09-24 17:54:00,
2013-09-24 14:12:00,66.0,42.0,-100.00,NW,309,7.0,-999.0,43,-99.99,,,-99.99,,2013-09-24 18:12:00,
2013-09-24 14:22:00,66.0,43.0,-100.00,NW,314,8.0,-999.0,43,-99.99,,,-99.99,,2013-09-24 18:22:00,
2013-09-24 14:42:00,66.0,43.0,-100.00,WNW,288,8.0,-999.0,43,-99.99,,,-99.99,,2013-09-24 18:42:00,
2013-09-24 14:53:00,66.0,44.0,-100.00,WNW,299,8.0,-999.0,44,-99.99,,,-99.99,,2013-09-24 18:53:00,
2013-09-24 15:11:00,67.0,44.0,-100.00,West,268,7.0,-999.0,43,-99.99,,,-99.99,,2013-09-24 19:11:00,
2013-09-24 15:22:00,68.0,44.0,-100.00,WNW,292,7.0,-999.0,41,-99.99,,,-99.99,,2013-09-24 19:22:00,
2013-09-24 15:42:00,68.0,44.0,-100.00,WNW,290,7.0,-999.0,42,-99.99,,,-99.99,,2013-09-24 19:42:00,
2013-09-24 15:52:00,68.0,44.0,-100.00,West,275,8.0,-999.0,43,-99.99,,,-99.99,,2013-09-24 19:52:00,
2013-09-24 16:12:00,68.0,45.0,-100.00,West,276,9.0,-999.0,42,-99.99,,,-99.99,,2013-09-24 20:12:00,
2013-09-24 16:22:00,68.0,44.0,-100.00,WNW,289,6.0,-999.0,42,-99.99,,,-99.99,,2013-09-24 20:22:00,
2013-09-24 16:42:00,69.0,45.0,-100.00,West,281,6.0,-999.0,41,-99.99,,,-99.99,,2013-09-24 20:42:00,
2013-09-24 16:52:00,70.0,45.0,-100.00,WNW,295,5.0,-999.0,41,-99.99,,,-99.99,,2013-09-24 20:52:00,
2013-09-24 17:12:00,69.0,45.0,-100.00,WNW,296,6.0,-999.0,41,-99.99,,,-99.99,,2013-09-24 21:12:00,
2013-09-24 17:22:00,70.0,44.0,-100.00,NNW,330,5.0,-999.0,39,-99.99,,,-99.99,,2013-09-24 21:22:00,
2013-09-24 17:43:00,70.0,44.0,-100.00,NNW,327,6.0,-999.0,40,-99.99,,,-99.99,,2013-09-24 21:43:00,
2013-09-24 17:54:00,70.0,44.0,-100.00,NW,311,5.0,-999.0,40,-99.99,,,-99.99,,2013-09-24 21:54:00,
2013-09-24 18:13:00,70.0,45.0,-100.00,NW,314,5.0,-999.0,39,-99.99,,,-99.99,,2013-09-24 22:13:00,
2013-09-24 18:24:00,70.0,45.0,-100.00,WNW,300,6.0,-999.0,40,-99.99,,,-99.99,,2013-09-24 22:24:00,
2013-09-24 18:43:00,70.0,45.0,-100.00,WNW,286,6.0,-999.0,40,-99.99,,,-99.99,,2013-09-24 22:43:00,
2013-09-24 18:54:00,70.0,45.0,-100.00,WNW,285,6.0,-999.0,40,-99.99,,,-99.99,,2013-09-24 22:54:00,
2013-09-24 19:13:00,69.0,44.0,-100.00,WNW,292,5.0,-999.0,41,-99.99,,,-99.99,,2013-09-24 23:13:00,
2013-09-24 19:22:00,69.0,45.0,-100.00,WNW,286,5.0,-999.0,42,-99.99,,,-99.99,,2013-09-24 23:22:00,
2013-09-24 19:43:00,68.0,46.0,-100.00,WNW,289,4.0,-999.0,44,-99.99,,,-99.99,,2013-09-24 23:43:00,
2013-09-24 19:53:00,68.0,46.0,-100.00,NW,308,4.0,-999.0,45,-99.99,,,-99.99,,2013-09-24 23:53:00,
2013-09-24 20:12:00,67.0,45.0,-100.00,NW,315,5.0,-999.0,45,-99.99,,,-99.99,,2013-09-25 00:12:00,
2013-09-24 20:22:00,67.0,45.0,-100.00,NNW,327,5.0,-999.0,45,-99.99,,,-99.99,,2013-09-25 00:22:00,
2013-09-24 20:42:00,67.0,45.0,-100.00,NNW,332,6.0,-999.0,46,-99.99,,,-99.99,,2013-09-25 00:42:00,
2013-09-24 20:52:00,66.0,46.0,-100.00,NW,320,5.0,-999.0,47,-99.99,,,-99.99,,2013-09-25 00:52:00,
2013-09-24 21:12:00,66.0,45.0,-100.00,NW,325,5.0,-999.0,47,-99.99,,,-99.99,,2013-09-25 01:12:00,
2013-09-24 21:22:00,66.0,46.0,-100.00,NNW,328,5.0,-999.0,48,-99.99,,,-99.99,,2013-09-25 01:22:00,
2013-09-24 21:42:00,65.0,46.0,-100.00,NNW,329,5.0,-999.0,49,-99.99,,,-99.99,,2013-09-25 01:42:00,
2013-09-24 21:52:00,65.0,47.0,-100.00,NW,317,3.0,-999.0,51,-99.99,,,-99.99,,2013-09-25 01:52:00,
2013-09-24 22:12:00,64.0,47.0,-100.00,WNW,297,2.0,-999.0,54,-99.99,,,-99.99,,2013-09-25 02:12:00,
2013-09-24 22:22:00,63.0,47.0,-100.00,WNW,299,2.0,-999.0,55,-99.99,,,-99.99,,2013-09-25 02:22:00,
2013-09-24 22:42:00,63.0,48.0,-100.00,WNW,297,1.0,-999.0,56,-99.99,,,-99.99,,2013-09-25 02:42:00,
2013-09-24 22:52:00,63.0,47.0,-100.00,NNW,341,2.0,-999.0,55,-99.99,,,-99.99,,2013-09-25 02:52:00,
2013-09-24 23:11:00,63.0,47.0,-100.00,NW,323,1.0,-999.0,55,-99.99,,,-99.99,,2013-09-25 03:11:00,
2013-09-24 23:23:00,62.0,48.0,-100.00,WSW,257,3.0,-999.0,61,-99.99,,,-99.99,,2013-09-25 03:23:00,
2013-09-24 23:45:00,60.0,51.0,-100.00,WSW,246,3.0,-999.0,69,-99.99,,,-99.99,,2013-09-25 03:45:00,
2013-09-24 23:55:00,60.0,51.0,-100.00,WSW,249,3.0,-999.0,72,-99.99,,,-99.99,,2013-09-25 03:55:00,